Overview Statistics Trail Chart Weather Telemetry Raw packets
 

This is the latest recevied weather packets stored in our database for station/object VK2KGV-15. If no packets are shown the sender has not sent any weather packets the latest 10 day(s).

<< 17 18 19 20 21 22 23 >>
Time Temp. Humidity Pressure Rain* Wind** Luminosity Snow
1787870131 13.33° C 83% 1026.8 hPa 0 mm - - -
1787869527 12.78° C 85% 1027.1 hPa 0 mm - - -
1787868321 11.67° C 89% 1027.1 hPa 0 mm - - -
1787867115 9.44° C 94% 1027 hPa 0 mm - - -
1787864702 4.44° C 94% 1027 hPa 0 mm - - -
1787862290 2.78° C 92% 1026.4 hPa 0 mm - - -
1787861084 3.33° C 92% 1026 hPa 0 mm - - -
1787858671 3.33° C 93% 1025.5 hPa 0 mm - - -
1787858069 3.33° C 92% 1025.4 hPa 0 mm - - -
1787857465 3.33° C 91% 1025.4 hPa 0 mm - - -
1787856259 3.89° C 92% 1025.1 hPa 0 mm - - -
1787855054 3.33° C 91% 1025 hPa 0 mm - - -
1787853846 3.89° C 91% 1024.9 hPa 0 mm - - -
1787853244 3.89° C 91% 1024.8 hPa 0 mm - - -
1787852640 3.89° C 91% 1024.8 hPa 0 mm - - -
1787851434 3.89° C 90% 1024.9 hPa 0 mm - - -
1787848419 5° C 91% 1025.2 hPa 0 mm - - -
1787843594 5.56° C 90% 1025.4 hPa 0 mm - - -
1787842388 6.11° C 89% 1025.5 hPa 0 mm - - -
1787840578 6.11° C 89% 1025.7 hPa 0 mm - - -
1787836959 7.22° C 88% 1025.5 hPa 0 mm - - -
1787836357 7.22° C 85% 1025.6 hPa 0 mm - - -
1787835753 7.78° C 85% 1025.6 hPa 0 mm - - -
1787835150 7.78° C 84% 1025.6 hPa 0 mm - - -
1787834547 8.33° C 84% 1025.6 hPa 0 mm - - -

* Rain since midnight (hover to see other rain measurements)
** Current wind speed in m/s (hover to see current wind gust speed)